Rugby, ND

4:23 AM CST on December 18, 2017 (GMT -0600)
Rugby Municipal

Weather History for KRUG - January, 2014

Change the Weather History Date:

Saturday, January 18, 2014

  Actual Average Record
Temperature  
Mean Temperature 26 °F -  
Max Temperature 33 °F 17 °F 43 °F (1972)
Min Temperature 19 °F -4 °F -36 °F (1950)
Degree Days  
Heating Degree Days 39    
Moisture  
Dew Point 23 °F    
Average Humidity 87    
Maximum Humidity 100    
Minimum Humidity 80    
Precipitation  
Precipitation 0.12 in - - ()
Sea Level Pressure  
Sea Level Pressure 29.76 in    
Wind  
Wind Speed 21 mph (WNW)    
Max Wind Speed 38 mph    
Max Gust Speed 47 mph    
Visibility 10 miles    
Events Rain    
Averages and records for this station are not official NWS values.
T = Trace of Precipitation, MM = Missing Value Source: NWS Daily Summary

Daily Weather History Graph

Daily Weather History Graph

Search for Another Location

Airport or City:

Trip Planner

Search our weather history database for the weather conditions in past years. The results will help you decide how hot, cold, wet, or windy it might be!

Date:

Astronomy

Jan. 18, 2014 Rise Set
Actual Time 8:24 AM CST 5:17 PM CST
Civil Twilight 7:49 AM CST 5:52 PM CST
Nautical Twilight 7:10 AM CST 6:31 PM CST
Astronomical Twilight 6:33 AM CST 7:08 PM CST
Moon 8:17 PM CST 9:09 AM CST
Length of Visible Light 10h 03m
Length of Day
8h 53m
Waning Gibbous, 94% of the Moon is Illuminated
Jan 18
Waning Gibbous
Jan 23
Last Quarter
Jan 30
New
Feb 6
First Quarter
Feb 14
Full

Hourly Weather History & Observations

Time (CST) Temp. Windchill Dew Point Humidity Pressure Visibility Wind Dir Wind Speed Gust Speed Precip Events Conditions
12:15 AM 33.8 °F 19.0 °F 30.2 °F 87% 29.46 in 10.0 mi NW 35.7 mph 47.2 mph N/A   Overcast
12:35 AM 32.0 °F 17.4 °F 32.0 °F 100% 29.48 in 1.0 mi NNW 31.1 mph 43.7 mph 0.12 in Rain Light Rain
12:55 AM 32.0 °F 16.2 °F 28.4 °F 87% 29.49 in 9.0 mi NNW 38.0 mph 47.2 mph 0.12 in   Mostly Cloudy
1:15 AM 30.2 °F 14.7 °F 26.6 °F 86% 29.52 in 9.0 mi North 32.2 mph 41.4 mph N/A Rain Light Freezing Rain
1:35 AM 28.4 °F 13.0 °F 24.8 °F 86% 29.55 in 10.0 mi North 28.8 mph 41.4 mph N/A   Mostly Cloudy
1:55 AM 26.6 °F 11.7 °F 23.0 °F 86% 29.58 in 10.0 mi North 24.2 mph 33.4 mph N/A   Scattered Clouds
2:15 AM 26.6 °F 12.0 °F 23.0 °F 86% 29.60 in 10.0 mi North 23.0 mph 28.8 mph N/A   Scattered Clouds
2:35 AM 24.8 °F 9.6 °F 23.0 °F 93% 29.62 in 10.0 mi North 23.0 mph 28.8 mph N/A   Partly Cloudy
2:55 AM 24.8 °F 10.0 °F 21.2 °F 86% 29.64 in 10.0 mi North 21.9 mph - N/A   Clear
3:15 AM 24.8 °F 10.7 °F 19.4 °F 80% 29.67 in 10.0 mi North 19.6 mph 26.5 mph N/A   Clear
3:35 AM 23.0 °F 10.6 °F 19.4 °F 86% 29.70 in 10.0 mi NNW 13.8 mph 23.0 mph N/A   Scattered Clouds
3:55 AM 24.8 °F 12.9 °F 21.2 °F 86% 29.73 in 10.0 mi North 13.8 mph - N/A   Overcast
4:15 AM 24.8 °F 11.9 °F 21.2 °F 86% 29.75 in 10.0 mi North 16.1 mph - N/A   Overcast
4:35 AM 24.8 °F 10.7 °F 21.2 °F 86% 29.77 in 10.0 mi NNE 19.6 mph - N/A   Overcast
4:55 AM 23.0 °F 8.3 °F 19.4 °F 86% 29.78 in 10.0 mi NNE 19.6 mph - N/A   Overcast
5:15 AM 21.2 °F 6.0 °F 17.6 °F 86% 29.79 in 10.0 mi North 19.6 mph - N/A   Overcast
5:35 AM 19.4 °F 3.2 °F 17.6 °F 93% 29.81 in 10.0 mi North 20.7 mph - N/A   Overcast
5:55 AM 19.4 °F 2.8 °F 17.6 °F 93% 29.84 in 10.0 mi North 21.9 mph - N/A   Overcast
6:15 AM 19.4 °F 5.0 °F 17.6 °F 93% 29.84 in 10.0 mi North 16.1 mph - N/A   Overcast
6:35 AM 19.4 °F 7.2 °F 15.8 °F 86% 29.87 in 10.0 mi North 11.5 mph - N/A   Overcast
6:55 AM 19.4 °F 5.0 °F 15.8 °F 86% 29.88 in 10.0 mi North 16.1 mph - N/A   Overcast
7:15 AM 19.4 °F 7.2 °F 17.6 °F 93% 29.88 in 10.0 mi North 11.5 mph - N/A   Overcast
7:35 AM 19.4 °F 6.6 °F 15.8 °F 86% 29.90 in 10.0 mi North 12.7 mph - N/A   Overcast
7:55 AM 19.4 °F 9.5 °F 15.8 °F 86% 29.91 in 10.0 mi North 8.1 mph - N/A   Overcast
8:15 AM 19.4 °F 11.5 °F 15.8 °F 86% 29.92 in 10.0 mi NW 5.8 mph - N/A   Overcast
8:35 AM 19.4 °F 8.6 °F 15.8 °F 86% 29.93 in 10.0 mi NW 9.2 mph - N/A   Overcast
8:55 AM 19.4 °F 11.5 °F 17.6 °F 93% 29.94 in 10.0 mi NW 5.8 mph - N/A   Overcast
9:15 AM 19.4 °F 12.8 °F 17.6 °F 93% 29.95 in 10.0 mi NW 4.6 mph - N/A   Overcast
9:35 AM 19.4 °F 11.5 °F 17.6 °F 93% 29.95 in 10.0 mi West 5.8 mph - N/A   Overcast
9:55 AM 19.4 °F 9.5 °F 17.6 °F 93% 29.95 in 10.0 mi WNW 8.1 mph - N/A   Overcast
10:15 AM 21.2 °F 10.1 °F 19.4 °F 93% 29.96 in 10.0 mi West 10.4 mph - N/A   Overcast
10:35 AM 23.0 °F 12.4 °F 19.4 °F 86% 29.97 in 10.0 mi WNW 10.4 mph - N/A   Overcast
10:55 AM 23.0 °F 13.1 °F 19.4 °F 86% 29.97 in 10.0 mi West 9.2 mph - N/A   Overcast
11:15 AM 23.0 °F 13.9 °F 21.2 °F 93% 29.96 in 10.0 mi WNW 8.1 mph - N/A   Overcast
11:35 AM 24.8 °F 16.1 °F 21.2 °F 86% 29.95 in 10.0 mi West 8.1 mph - N/A   Overcast
11:55 AM 24.8 °F 15.3 °F 23.0 °F 93% 29.95 in 10.0 mi West 9.2 mph - N/A   Overcast
12:15 PM 24.8 °F 14.6 °F 23.0 °F 93% 29.94 in 10.0 mi West 10.4 mph - N/A   Overcast
12:35 PM 24.8 °F 14.0 °F 23.0 °F 93% 29.94 in 10.0 mi West 11.5 mph - N/A   Overcast
12:55 PM 26.6 °F 12.4 °F 24.8 °F 93% 29.91 in 10.0 mi West 21.9 mph - N/A   Overcast
1:15 PM 26.6 °F 12.7 °F 23.0 °F 86% 29.90 in 10.0 mi WNW 20.7 mph 28.8 mph N/A   Overcast
1:35 PM 26.6 °F 13.4 °F 24.8 °F 93% 29.89 in 10.0 mi WNW 18.4 mph - N/A   Overcast
1:55 PM 28.4 °F 17.0 °F 24.8 °F 86% 29.88 in 10.0 mi WNW 15.0 mph - N/A   Overcast
2:15 PM 28.4 °F 17.0 °F 24.8 °F 86% 29.87 in 10.0 mi West 15.0 mph - N/A   Scattered Clouds
2:35 PM 28.4 °F 18.0 °F 24.8 °F 86% 29.85 in 10.0 mi West 12.7 mph - N/A   Scattered Clouds
2:55 PM 28.4 °F 17.0 °F 24.8 °F 86% 29.84 in 10.0 mi West 15.0 mph 18.4 mph N/A   Mostly Cloudy
3:15 PM 28.4 °F 17.0 °F 26.6 °F 93% 29.83 in 10.0 mi West 15.0 mph - N/A   Partly Cloudy
3:35 PM 28.4 °F 17.0 °F 26.6 °F 93% 29.84 in 10.0 mi West 15.0 mph - N/A   Clear
3:55 PM 30.2 °F 19.3 °F 26.6 °F 86% 29.83 in 10.0 mi West 15.0 mph - N/A   Partly Cloudy
4:15 PM 30.2 °F 19.3 °F 26.6 °F 86% 29.81 in 10.0 mi West 15.0 mph - N/A   Clear
4:35 PM 30.2 °F 19.8 °F 26.6 °F 86% 29.80 in 10.0 mi West 13.8 mph - N/A   Clear
4:55 PM 30.2 °F 19.3 °F 26.6 °F 86% 29.78 in 10.0 mi WSW 15.0 mph - N/A   Clear
5:15 PM 30.2 °F 20.2 °F 26.6 °F 86% 29.78 in 10.0 mi WSW 12.7 mph - N/A   Clear
5:35 PM 30.2 °F 20.8 °F 26.6 °F 86% 29.75 in 10.0 mi WSW 11.5 mph - N/A   Clear
5:55 PM 32.0 °F 22.1 °F 26.6 °F 80% 29.75 in 10.0 mi West 13.8 mph - N/A   Clear
6:15 PM 32.0 °F 22.1 °F 26.6 °F 80% 29.73 in 10.0 mi West 13.8 mph 20.7 mph N/A   Clear
6:35 PM 32.0 °F 21.6 °F 26.6 °F 80% 29.72 in 10.0 mi West 15.0 mph - N/A   Clear
6:55 PM 30.2 °F 19.3 °F 26.6 °F 86% 29.69 in 10.0 mi WSW 15.0 mph - N/A   Clear
7:15 PM 30.2 °F 17.8 °F 26.6 °F 86% 29.67 in 10.0 mi WSW 19.6 mph - N/A   Clear
7:35 PM 32.0 °F 19.8 °F 26.6 °F 80% 29.66 in 10.0 mi WSW 20.7 mph - N/A   Clear
7:55 PM 32.0 °F 19.8 °F 26.6 °F 80% 29.64 in 10.0 mi WSW 20.7 mph - N/A   Clear
8:15 PM 32.0 °F 19.5 °F 26.6 °F 80% 29.63 in 10.0 mi WSW 21.9 mph 27.6 mph N/A   Clear
8:35 PM 32.0 °F 18.6 °F 26.6 °F 80% 29.61 in 10.0 mi WSW 25.3 mph 32.2 mph N/A   Clear
8:55 PM 32.0 °F 18.4 °F 26.6 °F 80% 29.58 in 10.0 mi WSW 26.5 mph 32.2 mph N/A   Clear
9:15 PM 32.0 °F 18.9 °F 26.6 °F 80% 29.58 in 10.0 mi WSW 24.2 mph - N/A   Clear
9:35 PM 32.0 °F 19.5 °F 26.6 °F 80% 29.57 in 10.0 mi West 21.9 mph - N/A   Clear
9:55 PM 32.0 °F 19.2 °F 26.6 °F 80% 29.56 in 10.0 mi West 23.0 mph - N/A   Clear
10:15 PM 32.0 °F 19.5 °F 26.6 °F 80% 29.54 in 10.0 mi West 21.9 mph 26.5 mph N/A   Clear
10:35 PM 32.0 °F 20.8 °F 26.6 °F 80% 29.54 in 10.0 mi West 17.3 mph - N/A   Clear
10:55 PM 32.0 °F 20.8 °F 26.6 °F 80% 29.54 in 10.0 mi West 17.3 mph - N/A   Clear
11:15 PM 30.2 °F 20.2 °F 26.6 °F 86% 29.54 in 10.0 mi WNW 12.7 mph - N/A   Clear
11:35 PM 32.0 °F 20.1 °F 26.6 °F 80% 29.53 in 10.0 mi West 19.6 mph - N/A   Clear
11:55 PM 32.0 °F 20.5 °F 26.6 °F 80% 29.53 in 10.0 mi WNW 18.4 mph - N/A   Clear